Time,TemperatureF,DewpointF,PressureIn,WindDirection,WindDirectionDegrees,WindSpeedMPH,WindSpeedGustMPH,Humidity,HourlyPrecipIn,Conditions,Clouds,dailyrainin,SoftwareType,DateUTC
2013-03-21 00:00:00,24.0,12.9,30.08,NW,308,14.0,15.0,62,0.00,,---,0.00,VWS V14.01,2013-03-21 04:00:00,
2013-03-21 00:05:00,23.9,12.4,30.08,WNW,297,13.0,21.0,61,0.00,,---,0.00,VWS V14.01,2013-03-21 04:05:00,
2013-03-21 00:10:00,24.0,12.9,30.08,WNW,297,11.0,21.0,62,0.00,,---,0.00,VWS V14.01,2013-03-21 04:10:00,
2013-03-21 00:15:00,24.0,13.6,30.08,NW,316,10.0,21.0,64,0.00,,---,0.00,VWS V14.01,2013-03-21 04:15:00,
2013-03-21 00:20:00,23.8,13.1,30.08,NNW,330,13.0,21.0,63,0.00,,---,0.00,VWS V14.01,2013-03-21 04:20:00,
2013-03-21 00:25:00,23.6,12.9,30.08,NW,320,10.0,21.0,63,0.00,,---,0.00,VWS V14.01,2013-03-21 04:25:00,
2013-03-21 00:30:00,23.4,12.3,30.08,NNW,329,14.0,21.0,62,0.00,,---,0.00,VWS V14.01,2013-03-21 04:30:00,
2013-03-21 00:35:00,23.3,12.6,30.08,WNW,287,7.0,21.0,63,0.00,,---,0.00,VWS V14.01,2013-03-21 04:35:00,
2013-03-21 00:40:00,23.1,12.4,30.08,NW,314,13.0,21.0,63,0.00,,---,0.00,VWS V14.01,2013-03-21 04:40:00,
2013-03-21 00:45:00,22.9,11.8,30.08,WNW,284,10.0,21.0,62,0.00,,---,0.00,VWS V14.01,2013-03-21 04:45:00,
2013-03-21 00:50:00,22.8,12.1,30.08,NW,304,8.0,21.0,63,0.00,,---,0.00,VWS V14.01,2013-03-21 04:50:00,
2013-03-21 00:55:00,22.8,12.5,30.08,NW,318,5.0,21.0,64,0.00,,---,0.00,VWS V14.01,2013-03-21 04:55:00,
2013-03-21 01:00:00,22.7,12.4,30.08,NW,312,13.0,14.0,64,0.00,,---,0.00,VWS V14.01,2013-03-21 05:00:00,
2013-03-21 01:05:00,22.6,12.6,30.08,WNW,303,7.0,14.0,65,0.00,,---,0.00,VWS V14.01,2013-03-21 05:05:00,
2013-03-21 01:10:00,22.5,12.2,30.08,WNW,290,9.0,17.0,64,0.00,,---,0.00,VWS V14.01,2013-03-21 05:10:00,
2013-03-21 01:15:00,22.4,12.1,30.08,WNW,291,7.0,17.0,64,0.00,,---,0.00,VWS V14.01,2013-03-21 05:15:00,
2013-03-21 01:20:00,22.4,12.4,30.08,NW,308,10.0,17.0,65,0.00,,---,0.00,VWS V14.01,2013-03-21 05:20:00,
2013-03-21 01:25:00,22.5,12.2,30.08,WNW,300,7.0,17.0,64,0.00,,---,0.00,VWS V14.01,2013-03-21 05:25:00,
2013-03-21 01:30:00,22.5,12.2,30.08,WNW,303,11.0,17.0,64,0.00,,---,0.00,VWS V14.01,2013-03-21 05:30:00,
2013-03-21 01:35:00,22.5,12.2,30.08,WNW,297,5.0,17.0,64,0.00,,---,0.00,VWS V14.01,2013-03-21 05:35:00,
2013-03-21 01:40:00,22.5,11.8,30.08,WNW,299,8.0,17.0,63,0.00,,---,0.00,VWS V14.01,2013-03-21 05:40:00,
2013-03-21 01:45:00,22.5,11.8,30.08,NW,305,10.0,17.0,63,0.00,,---,0.00,VWS V14.01,2013-03-21 05:45:00,
2013-03-21 01:50:00,22.5,11.8,30.08,NW,307,7.0,17.0,63,0.00,,---,0.00,VWS V14.01,2013-03-21 05:50:00,
2013-03-21 01:55:00,22.5,11.5,30.08,NW,305,8.0,17.0,62,0.00,,---,0.00,VWS V14.01,2013-03-21 05:55:00,
2013-03-21 02:00:00,22.4,11.0,30.08,NW,311,7.0,14.0,61,0.00,,---,0.00,VWS V14.01,2013-03-21 06:00:00,
2013-03-21 02:05:00,22.4,11.4,30.08,NW,304,5.0,19.0,62,0.00,,---,0.00,VWS V14.01,2013-03-21 06:05:00,
2013-03-21 02:10:00,22.3,11.3,30.08,WNW,302,9.0,19.0,62,0.00,,---,0.00,VWS V14.01,2013-03-21 06:10:00,
2013-03-21 02:15:00,22.1,11.4,30.08,WNW,283,7.0,19.0,63,0.00,,---,0.00,VWS V14.01,2013-03-21 06:15:00,
2013-03-21 02:20:00,22.0,11.4,30.08,WNW,303,7.0,19.0,63,0.00,,---,0.00,VWS V14.01,2013-03-21 06:20:00,
2013-03-21 02:25:00,21.9,11.2,30.08,NW,304,5.0,19.0,63,0.00,,---,0.00,VWS V14.01,2013-03-21 06:25:00,
2013-03-21 02:30:00,21.8,11.2,30.08,WNW,301,7.0,19.0,63,0.00,,---,0.00,VWS V14.01,2013-03-21 06:30:00,
2013-03-21 02:35:00,21.7,11.4,30.08,WNW,288,8.0,19.0,64,0.00,,---,0.00,VWS V14.01,2013-03-21 06:35:00,
2013-03-21 02:40:00,21.6,11.7,30.07,WNW,303,10.0,19.0,65,0.00,,---,0.00,VWS V14.01,2013-03-21 06:40:00,
2013-03-21 02:45:00,21.5,11.6,30.07,NW,311,9.0,19.0,65,0.00,,---,0.00,VWS V14.01,2013-03-21 06:45:00,
2013-03-21 02:51:00,21.5,11.6,30.07,NW,304,10.0,19.0,65,0.00,,---,0.00,VWS V14.01,2013-03-21 06:51:00,
2013-03-21 02:56:00,21.5,11.6,30.07,NW,309,5.0,19.0,65,0.00,,---,0.00,VWS V14.01,2013-03-21 06:56:00,
2013-03-21 03:00:00,21.3,11.7,30.07,WNW,293,3.0,19.0,66,0.00,,---,0.00,VWS V14.01,2013-03-21 07:00:00,
2013-03-21 03:01:00,21.3,12.1,30.07,NW,308,7.0,9.0,67,0.00,,---,0.00,VWS V14.01,2013-03-21 07:01:00,
2013-03-21 03:06:00,21.3,12.1,30.07,NW,319,4.0,10.0,67,0.00,,---,0.00,VWS V14.01,2013-03-21 07:06:00,
2013-03-21 03:11:00,21.2,13.9,30.07,NW,325,10.0,10.0,73,0.00,,---,0.00,VWS V14.01,2013-03-21 07:11:00,
2013-03-21 03:16:00,21.1,14.7,30.07,NW,314,9.0,11.0,76,0.00,,---,0.00,VWS V14.01,2013-03-21 07:16:00,
2013-03-21 03:21:00,21.0,14.6,30.07,NW,318,12.0,13.0,76,0.00,,---,0.00,VWS V14.01,2013-03-21 07:21:00,
2013-03-21 03:26:00,20.9,14.2,30.07,WNW,301,5.0,13.0,75,0.00,,---,0.00,VWS V14.01,2013-03-21 07:26:00,
2013-03-21 03:31:00,20.8,14.4,30.07,NW,316,3.0,13.0,76,0.00,,---,0.00,VWS V14.01,2013-03-21 07:31:00,
2013-03-21 03:36:00,20.8,14.4,30.07,NW,304,5.0,13.0,76,0.00,,---,0.00,VWS V14.01,2013-03-21 07:36:00,
2013-03-21 03:41:00,20.8,14.4,30.07,WNW,301,6.0,13.0,76,0.00,,---,0.00,VWS V14.01,2013-03-21 07:41:00,
2013-03-21 03:46:00,20.8,14.1,30.07,WNW,290,7.0,13.0,75,0.00,,---,0.00,VWS V14.01,2013-03-21 07:46:00,
2013-03-21 03:51:00,20.7,14.0,30.07,NW,326,5.0,13.0,75,0.00,,---,0.00,VWS V14.01,2013-03-21 07:51:00,
2013-03-21 03:56:00,20.6,13.9,30.07,WNW,303,7.0,13.0,75,0.00,,---,0.00,VWS V14.01,2013-03-21 07:56:00,
2013-03-21 04:00:00,20.6,14.2,30.06,NW,318,8.0,13.0,76,0.00,,---,0.00,VWS V14.01,2013-03-21 08:00:00,
2013-03-21 04:01:00,20.6,14.6,30.06,NW,318,8.0,8.0,77,0.00,,---,0.00,VWS V14.01,2013-03-21 08:01:00,
2013-03-21 04:06:00,20.5,15.3,30.06,NNW,330,5.0,9.0,80,0.00,,---,0.00,VWS V14.01,2013-03-21 08:06:00,
2013-03-21 04:11:00,20.3,16.0,30.06,NW,326,9.0,13.0,83,0.00,,---,0.00,VWS V14.01,2013-03-21 08:11:00,
2013-03-21 04:16:00,19.8,15.8,30.06,NW,323,9.0,13.0,84,0.00,,---,0.00,VWS V14.01,2013-03-21 08:16:00,
2013-03-21 04:21:00,19.5,15.7,30.06,WNW,303,6.0,14.0,85,0.00,,---,0.00,VWS V14.01,2013-03-21 08:21:00,
2013-03-21 04:26:00,19.2,14.9,30.06,NW,304,4.0,14.0,83,0.00,,---,0.00,VWS V14.01,2013-03-21 08:26:00,
2013-03-21 04:31:00,19.2,15.2,30.05,NW,305,5.0,14.0,84,0.00,,---,0.00,VWS V14.01,2013-03-21 08:31:00,
2013-03-21 04:37:00,19.2,15.2,30.05,WNW,297,5.0,14.0,84,0.00,,---,0.00,VWS V14.01,2013-03-21 08:37:00,
2013-03-21 04:42:00,19.3,15.0,30.05,WNW,288,4.0,14.0,83,0.00,,---,0.00,VWS V14.01,2013-03-21 08:42:00,
2013-03-21 04:47:00,19.4,14.8,30.04,WNW,302,5.0,14.0,82,0.00,,---,0.00,VWS V14.01,2013-03-21 08:47:00,
2013-03-21 04:52:00,19.5,14.6,30.04,WNW,293,5.0,14.0,81,0.00,,---,0.00,VWS V14.01,2013-03-21 08:52:00,
2013-03-21 04:57:00,19.5,14.6,30.04,WNW,302,9.0,14.0,81,0.00,,---,0.00,VWS V14.01,2013-03-21 08:57:00,
2013-03-21 05:00:00,19.4,14.5,30.04,WNW,303,7.0,14.0,81,0.00,,---,0.00,VWS V14.01,2013-03-21 09:00:00,
2013-03-21 05:02:00,19.4,14.5,30.04,WNW,302,5.0,7.0,81,0.00,,---,0.00,VWS V14.01,2013-03-21 09:02:00,
2013-03-21 05:07:00,19.3,14.4,30.04,WNW,301,6.0,9.0,81,0.00,,---,0.00,VWS V14.01,2013-03-21 09:07:00,
2013-03-21 05:12:00,19.3,14.1,30.04,WNW,297,7.0,9.0,80,0.00,,---,0.00,VWS V14.01,2013-03-21 09:12:00,
2013-03-21 05:17:00,19.3,13.9,30.05,WNW,295,7.0,9.0,79,0.00,,---,0.00,VWS V14.01,2013-03-21 09:17:00,
2013-03-21 05:22:00,19.3,13.6,30.04,WNW,295,6.0,10.0,78,0.00,,---,0.00,VWS V14.01,2013-03-21 09:22:00,
2013-03-21 05:27:00,19.3,13.6,30.04,WNW,297,9.0,10.0,78,0.00,,---,0.00,VWS V14.01,2013-03-21 09:27:00,
2013-03-21 05:32:00,19.2,13.2,30.05,NW,323,4.0,10.0,77,0.00,,---,0.00,VWS V14.01,2013-03-21 09:32:00,
2013-03-21 05:37:00,19.1,13.1,30.05,NW,312,5.0,10.0,77,0.00,,---,0.00,VWS V14.01,2013-03-21 09:37:00,
2013-03-21 05:42:00,19.2,13.2,30.05,WNW,303,8.0,10.0,77,0.00,,---,0.00,VWS V14.01,2013-03-21 09:42:00,
2013-03-21 05:47:00,19.2,13.2,30.05,WNW,297,4.0,10.0,77,0.00,,---,0.00,VWS V14.01,2013-03-21 09:47:00,
2013-03-21 05:52:00,19.2,12.9,30.05,NW,319,4.0,10.0,76,0.00,,---,0.00,VWS V14.01,2013-03-21 09:52:00,
2013-03-21 05:57:00,19.2,13.2,30.05,NW,312,5.0,10.0,77,0.00,,---,0.00,VWS V14.01,2013-03-21 09:57:00,
2013-03-21 06:00:00,19.2,12.9,30.05,WNW,299,3.0,10.0,76,0.00,,---,0.00,VWS V14.01,2013-03-21 10:00:00,
2013-03-21 06:02:00,19.1,13.1,30.05,NW,308,5.0,6.0,77,0.00,,---,0.00,VWS V14.01,2013-03-21 10:02:00,
2013-03-21 06:07:00,19.0,13.0,30.05,NW,308,6.0,6.0,77,0.00,,---,0.00,VWS V14.01,2013-03-21 10:07:00,
2013-03-21 06:12:00,18.9,12.6,30.05,WNW,295,4.0,9.0,76,0.00,,---,0.00,VWS V14.01,2013-03-21 10:12:00,
2013-03-21 06:17:00,18.7,12.7,30.05,WNW,300,9.0,11.0,77,0.00,,---,0.00,VWS V14.01,2013-03-21 10:17:00,
2013-03-21 06:22:00,18.6,12.3,30.05,NW,307,4.0,11.0,76,0.00,,---,0.00,VWS V14.01,2013-03-21 10:22:00,
2013-03-21 06:27:00,18.4,12.1,30.06,NW,308,6.0,11.0,76,0.00,,---,0.00,VWS V14.01,2013-03-21 10:27:00,
2013-03-21 06:32:00,18.3,12.3,30.06,WNW,293,5.0,11.0,77,0.00,,---,0.00,VWS V14.01,2013-03-21 10:32:00,
2013-03-21 06:37:00,18.2,12.2,30.06,WNW,302,7.0,11.0,77,0.00,,---,0.00,VWS V14.01,2013-03-21 10:37:00,
2013-03-21 06:42:00,18.1,12.1,30.06,WNW,293,5.0,11.0,77,0.00,,---,0.00,VWS V14.01,2013-03-21 10:42:00,
2013-03-21 06:47:00,18.0,12.3,30.06,WNW,300,4.0,11.0,78,0.00,,---,0.00,VWS V14.01,2013-03-21 10:47:00,
2013-03-21 06:52:00,18.0,12.3,30.06,WNW,299,7.0,11.0,78,0.00,,---,0.00,VWS V14.01,2013-03-21 10:52:00,
2013-03-21 06:57:00,17.9,12.5,30.06,WNW,293,6.0,11.0,79,0.00,,---,0.00,VWS V14.01,2013-03-21 10:57:00,
2013-03-21 07:00:00,17.8,12.4,30.06,NW,307,7.0,11.0,79,0.00,,---,0.00,VWS V14.01,2013-03-21 11:00:00,
2013-03-21 07:02:00,17.8,12.4,30.07,NW,305,4.0,10.0,79,0.00,,---,0.00,VWS V14.01,2013-03-21 11:02:00,
2013-03-21 07:07:00,17.7,12.6,30.07,WNW,300,6.0,10.0,80,0.00,,---,0.00,VWS V14.01,2013-03-21 11:07:00,
2013-03-21 07:12:00,17.6,12.5,30.07,WNW,299,7.0,10.0,80,0.00,,---,0.00,VWS V14.01,2013-03-21 11:12:00,
2013-03-21 07:17:00,17.6,12.8,30.07,NW,312,4.0,10.0,81,0.00,,---,0.00,VWS V14.01,2013-03-21 11:17:00,
2013-03-21 07:22:00,17.6,12.8,30.07,WNW,302,8.0,10.0,81,0.00,,---,0.00,VWS V14.01,2013-03-21 11:22:00,
2013-03-21 07:27:00,17.5,12.7,30.07,NNW,345,3.0,10.0,81,0.00,,---,0.00,VWS V14.01,2013-03-21 11:27:00,
2013-03-21 07:32:00,17.4,12.6,30.07,NW,318,4.0,10.0,81,0.00,,---,0.00,VWS V14.01,2013-03-21 11:32:00,
2013-03-21 07:37:00,17.5,12.9,30.08,NW,305,2.0,10.0,82,0.00,,---,0.00,VWS V14.01,2013-03-21 11:37:00,
2013-03-21 07:43:00,17.5,12.9,30.08,WNW,303,4.0,10.0,82,0.00,,---,0.00,VWS V14.01,2013-03-21 11:43:00,
2013-03-21 07:48:00,17.5,12.9,30.08,NW,314,5.0,10.0,82,0.00,,---,0.00,VWS V14.01,2013-03-21 11:48:00,
2013-03-21 07:53:00,17.5,12.9,30.08,NW,312,3.0,10.0,82,0.00,,---,0.00,VWS V14.01,2013-03-21 11:53:00,
2013-03-21 07:58:00,17.5,12.9,30.08,WNW,303,3.0,10.0,82,0.00,,---,0.00,VWS V14.01,2013-03-21 11:58:00,
2013-03-21 08:00:00,17.4,12.9,30.08,NNW,333,5.0,10.0,82,0.00,,---,0.00,VWS V14.01,2013-03-21 12:00:00,
2013-03-21 08:03:00,17.5,12.7,30.08,NW,316,3.0,10.0,81,0.00,,---,0.00,VWS V14.01,2013-03-21 12:03:00,
2013-03-21 08:08:00,17.3,12.2,30.08,NW,318,7.0,10.0,80,0.00,,---,0.00,VWS V14.01,2013-03-21 12:08:00,
2013-03-21 08:13:00,17.4,11.4,30.08,NW,316,6.0,11.0,77,0.00,,---,0.00,VWS V14.01,2013-03-21 12:13:00,
2013-03-21 08:18:00,17.4,11.4,30.08,NW,318,3.0,11.0,77,0.00,,---,0.00,VWS V14.01,2013-03-21 12:18:00,
2013-03-21 08:23:00,17.7,11.4,30.09,NW,318,5.0,11.0,76,0.00,,---,0.00,VWS V14.01,2013-03-21 12:23:00,
2013-03-21 08:28:00,17.9,11.6,30.09,NW,323,6.0,11.0,76,0.00,,---,0.00,VWS V14.01,2013-03-21 12:28:00,
2013-03-21 08:33:00,18.1,11.5,30.09,NW,318,4.0,11.0,75,0.00,,---,0.00,VWS V14.01,2013-03-21 12:33:00,
2013-03-21 08:38:00,18.3,11.7,30.10,NW,319,4.0,11.0,75,0.00,,---,0.00,VWS V14.01,2013-03-21 12:38:00,
2013-03-21 08:43:00,18.4,11.8,30.10,NW,325,7.0,11.0,75,0.00,,---,0.00,VWS V14.01,2013-03-21 12:43:00,
2013-03-21 08:48:00,18.5,11.6,30.10,WNW,303,6.0,11.0,74,0.00,,---,0.00,VWS V14.01,2013-03-21 12:48:00,
2013-03-21 08:53:00,18.5,11.6,30.10,NW,315,8.0,11.0,74,0.00,,---,0.00,VWS V14.01,2013-03-21 12:53:00,
2013-03-21 08:58:00,18.6,11.7,30.10,NW,318,8.0,11.0,74,0.00,,---,0.00,VWS V14.01,2013-03-21 12:58:00,
2013-03-21 09:00:00,18.6,11.4,30.10,NW,316,7.0,11.0,73,0.00,,---,0.00,VWS V14.01,2013-03-21 13:00:00,
2013-03-21 09:03:00,18.6,11.1,30.10,NNW,341,5.0,12.0,72,0.00,,---,0.00,VWS V14.01,2013-03-21 13:03:00,
2013-03-21 09:08:00,18.8,11.3,30.10,NW,326,4.0,12.0,72,0.00,,---,0.00,VWS V14.01,2013-03-21 13:08:00,
2013-03-21 09:13:00,19.0,11.5,30.10,NW,326,6.0,12.0,72,0.00,,---,0.00,VWS V14.01,2013-03-21 13:13:00,
2013-03-21 09:18:00,19.1,11.3,30.10,WNW,300,4.0,12.0,71,0.00,,---,0.00,VWS V14.01,2013-03-21 13:18:00,
2013-03-21 09:23:00,19.2,11.7,30.11,WNW,292,6.0,12.0,72,0.00,,---,0.00,VWS V14.01,2013-03-21 13:23:00,
2013-03-21 09:28:00,19.2,11.4,30.11,NW,318,4.0,12.0,71,0.00,,---,0.00,VWS V14.01,2013-03-21 13:28:00,
2013-03-21 09:33:00,19.4,11.6,30.10,NW,322,6.0,12.0,71,0.00,,---,0.00,VWS V14.01,2013-03-21 13:33:00,
2013-03-21 09:38:00,19.2,10.7,30.10,NW,316,6.0,12.0,69,0.00,,---,0.00,VWS V14.01,2013-03-21 13:38:00,
2013-03-21 09:43:00,19.3,11.1,30.11,NW,307,6.0,12.0,70,0.00,,---,0.00,VWS V14.01,2013-03-21 13:43:00,
2013-03-21 09:48:00,19.6,11.7,30.11,NW,315,7.0,12.0,71,0.00,,---,0.00,VWS V14.01,2013-03-21 13:48:00,
2013-03-21 09:53:00,19.8,11.9,30.11,NNW,330,9.0,12.0,71,0.00,,---,0.00,VWS V14.01,2013-03-21 13:53:00,
2013-03-21 09:58:00,19.9,11.4,30.11,WNW,303,4.0,12.0,69,0.00,,---,0.00,VWS V14.01,2013-03-21 13:58:00,
2013-03-21 10:00:00,19.9,11.4,30.11,NW,326,4.0,12.0,69,0.00,,---,0.00,VWS V14.01,2013-03-21 14:00:00,
2013-03-21 10:03:00,20.1,11.9,30.11,NNW,339,7.0,8.0,70,0.00,,---,0.00,VWS V14.01,2013-03-21 14:03:00,
2013-03-21 10:08:00,20.1,11.6,30.11,NW,318,8.0,12.0,69,0.00,,---,0.00,VWS V14.01,2013-03-21 14:08:00,
2013-03-21 10:13:00,20.1,11.2,30.11,NW,314,4.0,12.0,68,0.00,,---,0.00,VWS V14.01,2013-03-21 14:13:00,
2013-03-21 10:18:00,20.3,11.8,30.11,NW,309,6.0,12.0,69,0.00,,---,0.00,VWS V14.01,2013-03-21 14:18:00,
2013-03-21 10:23:00,20.6,11.7,30.11,NW,304,8.0,12.0,68,0.00,,---,0.00,VWS V14.01,2013-03-21 14:23:00,
2013-03-21 10:28:00,20.6,11.1,30.11,WNW,291,7.0,12.0,66,0.00,,---,0.00,VWS V14.01,2013-03-21 14:28:00,
2013-03-21 10:33:00,20.5,10.6,30.11,NW,318,7.0,13.0,65,0.00,,---,0.00,VWS V14.01,2013-03-21 14:33:00,
2013-03-21 10:38:00,20.7,9.8,30.11,WNW,289,4.0,13.0,62,0.00,,---,0.00,VWS V14.01,2013-03-21 14:38:00,
2013-03-21 10:43:00,21.0,10.8,30.11,WNW,290,4.0,13.0,64,0.00,,---,0.00,VWS V14.01,2013-03-21 14:43:00,
2013-03-21 10:48:00,20.9,9.9,30.11,WNW,293,5.0,13.0,62,0.00,,---,0.00,VWS V14.01,2013-03-21 14:48:00,
2013-03-21 10:53:00,21.1,10.8,30.11,NW,307,4.0,13.0,64,0.00,,---,0.00,VWS V14.01,2013-03-21 14:53:00,
2013-03-21 10:58:00,21.2,9.1,30.11,WNW,300,3.0,13.0,59,0.00,,---,0.00,VWS V14.01,2013-03-21 14:58:00,
2013-03-21 11:00:00,21.1,9.0,30.11,NNW,345,4.0,13.0,59,0.00,,---,0.00,VWS V14.01,2013-03-21 15:00:00,
2013-03-21 11:04:00,21.4,10.8,30.11,West,271,8.0,9.0,63,0.00,,---,0.00,VWS V14.01,2013-03-21 15:04:00,
2013-03-21 11:09:00,21.6,11.0,30.11,NW,305,6.0,9.0,63,0.00,,---,0.00,VWS V14.01,2013-03-21 15:09:00,
2013-03-21 11:14:00,21.8,10.8,30.11,NW,316,4.0,11.0,62,0.00,,---,0.00,VWS V14.01,2013-03-21 15:14:00,
2013-03-21 11:19:00,21.9,9.4,30.11,West,260,7.0,11.0,58,0.00,,---,0.00,VWS V14.01,2013-03-21 15:19:00,
2013-03-21 11:24:00,22.2,10.4,30.11,WNW,285,7.0,13.0,60,0.00,,---,0.00,VWS V14.01,2013-03-21 15:24:00,
2013-03-21 11:29:00,22.1,9.2,30.12,WNW,300,8.0,13.0,57,0.00,,---,0.00,VWS V14.01,2013-03-21 15:29:00,
2013-03-21 11:34:00,21.9,9.0,30.12,WNW,295,8.0,13.0,57,0.00,,---,0.00,VWS V14.01,2013-03-21 15:34:00,
2013-03-21 11:39:00,22.3,9.4,30.12,WNW,283,6.0,14.0,57,0.00,,---,0.00,VWS V14.01,2013-03-21 15:39:00,
2013-03-21 11:44:00,22.7,9.8,30.12,NW,312,6.0,14.0,57,0.00,,---,0.00,VWS V14.01,2013-03-21 15:44:00,
2013-03-21 11:49:00,22.7,9.0,30.13,NW,312,4.0,14.0,55,0.00,,---,0.00,VWS V14.01,2013-03-21 15:49:00,
2013-03-21 11:54:00,22.8,9.1,30.13,NNW,345,8.0,14.0,55,0.00,,---,0.00,VWS V14.01,2013-03-21 15:54:00,
2013-03-21 11:59:00,23.2,9.0,30.13,WNW,290,7.0,14.0,54,0.00,,---,0.00,VWS V14.01,2013-03-21 15:59:00,
2013-03-21 12:00:00,23.2,9.0,30.13,WNW,295,6.0,14.0,54,0.00,,---,0.00,VWS V14.01,2013-03-21 16:00:00,
2013-03-21 12:04:00,23.7,10.7,30.13,NW,318,7.0,10.0,57,0.00,,---,0.00,VWS V14.01,2013-03-21 16:04:00,
2013-03-21 12:09:00,24.0,11.0,30.13,NW,312,6.0,12.0,57,0.00,,---,0.00,VWS V14.01,2013-03-21 16:09:00,
2013-03-21 12:14:00,23.6,8.6,30.13,WNW,287,6.0,12.0,52,0.00,,---,0.00,VWS V14.01,2013-03-21 16:14:00,
2013-03-21 12:19:00,23.7,9.9,30.13,West,277,4.0,12.0,55,0.00,,---,0.00,VWS V14.01,2013-03-21 16:19:00,
2013-03-21 12:24:00,23.7,10.3,30.13,West,280,8.0,12.0,56,0.00,,---,0.00,VWS V14.01,2013-03-21 16:24:00,
2013-03-21 12:29:00,24.4,10.1,30.13,NNW,339,2.0,12.0,54,0.00,,---,0.00,VWS V14.01,2013-03-21 16:29:00,
2013-03-21 12:34:00,24.7,10.9,30.13,NNW,335,6.0,12.0,55,0.00,,---,0.00,VWS V14.01,2013-03-21 16:34:00,
2013-03-21 12:39:00,24.3,9.6,30.13,North,359,4.0,12.0,53,0.00,,---,0.00,VWS V14.01,2013-03-21 16:39:00,
2013-03-21 12:44:00,24.6,9.9,30.13,NNW,329,4.0,12.0,53,0.00,,---,0.00,VWS V14.01,2013-03-21 16:44:00,
2013-03-21 12:49:00,25.3,11.8,30.12,North,351,5.0,12.0,56,0.00,,---,0.00,VWS V14.01,2013-03-21 16:49:00,
2013-03-21 12:54:00,25.4,10.7,30.13,NW,326,5.0,12.0,53,0.00,,---,0.00,VWS V14.01,2013-03-21 16:54:00,
2013-03-21 12:59:00,25.0,9.9,30.12,NW,326,4.0,4.0,52,0.00,,---,0.00,VWS V14.01,2013-03-21 16:59:00,
2013-03-21 13:00:00,25.0,9.9,30.12,WNW,295,4.0,12.0,52,0.00,,---,0.00,VWS V14.01,2013-03-21 17:00:00,
2013-03-21 13:04:00,25.3,11.0,30.12,NNW,332,6.0,9.0,54,0.00,,---,0.00,VWS V14.01,2013-03-21 17:04:00,
2013-03-21 13:09:00,25.4,11.1,30.12,NW,317,9.0,12.0,54,0.00,,---,0.00,VWS V14.01,2013-03-21 17:09:00,
2013-03-21 13:15:00,25.7,11.4,30.12,WNW,291,6.0,12.0,54,0.00,,---,0.00,VWS V14.01,2013-03-21 17:15:00,
2013-03-21 13:20:00,25.5,11.2,30.12,WSW,250,10.0,12.0,54,0.00,,---,0.00,VWS V14.01,2013-03-21 17:20:00,
2013-03-21 13:25:00,26.1,12.6,30.12,WNW,287,5.0,12.0,56,0.00,,---,0.00,VWS V14.01,2013-03-21 17:25:00,
2013-03-21 13:30:00,26.5,12.1,30.12,NW,320,6.0,12.0,54,0.00,,---,0.00,VWS V14.01,2013-03-21 17:30:00,
2013-03-21 13:35:00,26.0,10.4,30.12,NE,34,0.0,12.0,51,0.00,,---,0.00,VWS V14.01,2013-03-21 17:35:00,
2013-03-21 13:40:00,26.1,10.9,30.12,NW,308,7.0,12.0,52,0.00,,---,0.00,VWS V14.01,2013-03-21 17:40:00,
2013-03-21 13:45:00,26.8,12.4,30.12,NW,316,6.0,12.0,54,0.00,,---,0.00,VWS V14.01,2013-03-21 17:45:00,
2013-03-21 13:50:00,27.1,12.2,30.11,NW,315,5.0,12.0,53,0.00,,---,0.00,VWS V14.01,2013-03-21 17:50:00,
2013-03-21 13:55:00,26.8,11.6,30.11,NW,304,4.0,12.0,52,0.00,,---,0.00,VWS V14.01,2013-03-21 17:55:00,
2013-03-21 14:00:00,27.4,12.5,30.11,West,269,2.0,5.0,53,0.00,,---,0.00,VWS V14.01,2013-03-21 18:00:00,
2013-03-21 14:05:00,27.7,12.8,30.11,NNW,329,2.0,7.0,53,0.00,,---,0.00,VWS V14.01,2013-03-21 18:05:00,
2013-03-21 14:10:00,28.2,13.7,30.10,NE,40,2.0,9.0,54,0.00,,---,0.00,VWS V14.01,2013-03-21 18:10:00,
2013-03-21 14:15:00,28.4,12.1,30.10,WNW,300,2.0,9.0,50,0.00,,---,0.00,VWS V14.01,2013-03-21 18:15:00,
2013-03-21 14:20:00,28.7,12.9,30.10,NW,321,10.0,10.0,51,0.00,,---,0.00,VWS V14.01,2013-03-21 18:20:00,
2013-03-21 14:25:00,28.6,12.8,30.10,NW,317,8.0,12.0,51,0.00,,---,0.00,VWS V14.01,2013-03-21 18:25:00,
2013-03-21 14:30:00,28.4,12.6,30.10,NW,304,2.0,12.0,51,0.00,,---,0.00,VWS V14.01,2013-03-21 18:30:00,
2013-03-21 14:35:00,28.5,12.7,30.10,WNW,293,3.0,12.0,51,0.00,,---,0.00,VWS V14.01,2013-03-21 18:35:00,
2013-03-21 14:40:00,29.0,13.1,30.10,WNW,289,5.0,12.0,51,0.00,,---,0.00,VWS V14.01,2013-03-21 18:40:00,
2013-03-21 14:45:00,28.8,12.1,30.10,SW,231,0.0,12.0,49,0.00,,---,0.00,VWS V14.01,2013-03-21 18:45:00,
2013-03-21 14:50:00,29.2,13.8,30.10,WSW,242,3.0,12.0,52,0.00,,---,0.00,VWS V14.01,2013-03-21 18:50:00,
2013-03-21 14:55:00,29.3,12.1,30.10,WNW,291,6.0,12.0,48,0.00,,---,0.00,VWS V14.01,2013-03-21 18:55:00,
2013-03-21 15:00:00,29.2,12.0,30.10,West,278,6.0,6.0,48,0.00,,---,0.00,VWS V14.01,2013-03-21 19:00:00,
2013-03-21 15:06:00,28.9,12.6,30.10,WSW,258,4.0,9.0,50,0.00,,---,0.00,VWS V14.01,2013-03-21 19:06:00,
2013-03-21 15:11:00,29.2,14.2,30.10,NNW,330,6.0,9.0,53,0.00,,---,0.00,VWS V14.01,2013-03-21 19:11:00,
2013-03-21 15:16:00,29.6,13.3,30.10,NNW,339,3.0,9.0,50,0.00,,---,0.00,VWS V14.01,2013-03-21 19:16:00,
2013-03-21 15:21:00,29.7,12.9,30.10,West,281,5.0,9.0,49,0.00,,---,0.00,VWS V14.01,2013-03-21 19:21:00,
2013-03-21 15:26:00,29.9,14.4,30.10,WSW,256,6.0,9.0,52,0.00,,---,0.00,VWS V14.01,2013-03-21 19:26:00,
2013-03-21 15:31:00,29.7,12.4,30.10,WNW,295,2.0,11.0,48,0.00,,---,0.00,VWS V14.01,2013-03-21 19:31:00,
2013-03-21 15:36:00,30.2,13.4,30.09,WNW,295,5.0,11.0,49,0.00,,---,0.00,VWS V14.01,2013-03-21 19:36:00,
2013-03-21 15:41:00,30.1,12.8,30.09,SW,217,2.0,11.0,48,0.00,,---,0.00,VWS V14.01,2013-03-21 19:41:00,
2013-03-21 15:46:00,30.5,13.2,30.09,NW,309,9.0,11.0,48,0.00,,---,0.00,VWS V14.01,2013-03-21 19:46:00,
2013-03-21 15:51:00,31.0,14.6,30.09,NW,315,7.0,11.0,50,0.00,,---,0.00,VWS V14.01,2013-03-21 19:51:00,
2013-03-21 15:56:00,30.7,12.9,30.09,North,9,3.0,11.0,47,0.00,,---,0.00,VWS V14.01,2013-03-21 19:56:00,
2013-03-21 16:00:00,30.7,12.9,30.09,NNW,330,5.0,11.0,47,0.00,,---,0.00,VWS V14.01,2013-03-21 20:00:00,
2013-03-21 16:01:00,31.0,14.6,30.08,WNW,288,8.0,11.0,50,0.00,,---,0.00,VWS V14.01,2013-03-21 20:01:00,
2013-03-21 16:06:00,31.4,14.9,30.08,West,262,3.0,11.0,50,0.00,,---,0.00,VWS V14.01,2013-03-21 20:06:00,
2013-03-21 16:11:00,31.2,12.8,30.08,SW,236,5.0,11.0,46,0.00,,---,0.00,VWS V14.01,2013-03-21 20:11:00,
2013-03-21 16:16:00,30.8,13.0,30.08,NW,304,5.0,11.0,47,0.00,,---,0.00,VWS V14.01,2013-03-21 20:16:00,
2013-03-21 16:21:00,30.5,12.2,30.08,WSW,243,3.0,11.0,46,0.00,,---,0.00,VWS V14.01,2013-03-21 20:21:00,
2013-03-21 16:26:00,30.9,13.5,30.08,West,259,9.0,11.0,48,0.00,,---,0.00,VWS V14.01,2013-03-21 20:26:00,
2013-03-21 16:31:00,31.4,14.9,30.08,WNW,285,2.0,11.0,50,0.00,,---,0.00,VWS V14.01,2013-03-21 20:31:00,
2013-03-21 16:37:00,31.2,13.8,30.08,WSW,258,9.0,12.0,48,0.00,,---,0.00,VWS V14.01,2013-03-21 20:37:00,
2013-03-21 16:42:00,31.2,13.8,30.07,West,266,3.0,12.0,48,0.00,,---,0.00,VWS V14.01,2013-03-21 20:42:00,
2013-03-21 16:47:00,31.2,13.3,30.07,WNW,293,5.0,12.0,47,0.00,,---,0.00,VWS V14.01,2013-03-21 20:47:00,
2013-03-21 16:52:00,31.8,15.3,30.07,West,277,7.0,12.0,50,0.00,,---,0.00,VWS V14.01,2013-03-21 20:52:00,
2013-03-21 16:57:00,31.7,13.8,30.07,West,276,3.0,12.0,47,0.00,,---,0.00,VWS V14.01,2013-03-21 20:57:00,
2013-03-21 17:00:00,31.5,14.1,30.07,NW,307,7.0,12.0,48,0.00,,---,0.00,VWS V14.01,2013-03-21 21:00:00,
2013-03-21 17:02:00,31.4,13.5,30.07,North,8,5.0,8.0,47,0.00,,---,0.00,VWS V14.01,2013-03-21 21:02:00,
2013-03-21 17:07:00,31.8,13.9,30.07,NNW,339,2.0,8.0,47,0.00,,---,0.00,VWS V14.01,2013-03-21 21:07:00,
2013-03-21 17:12:00,31.8,13.9,30.07,NW,314,5.0,10.0,47,0.00,,---,0.00,VWS V14.01,2013-03-21 21:12:00,
2013-03-21 17:17:00,32.1,14.2,30.07,NNE,20,3.0,10.0,47,0.00,,---,0.00,VWS V14.01,2013-03-21 21:17:00,
2013-03-21 17:22:00,32.3,13.9,30.07,NNW,337,6.0,10.0,46,0.00,,---,0.00,VWS V14.01,2013-03-21 21:22:00,
2013-03-21 17:27:00,32.4,14.9,30.07,NW,314,4.0,11.0,48,0.00,,---,0.00,VWS V14.01,2013-03-21 21:27:00,
2013-03-21 17:32:00,32.6,15.6,30.07,WNW,300,5.0,11.0,49,0.00,,---,0.00,VWS V14.01,2013-03-21 21:32:00,
2013-03-21 17:37:00,32.5,15.0,30.07,NW,326,7.0,11.0,48,0.00,,---,0.00,VWS V14.01,2013-03-21 21:37:00,
2013-03-21 17:42:00,32.3,14.3,30.07,NNE,16,4.0,11.0,47,0.00,,---,0.00,VWS V14.01,2013-03-21 21:42:00,
2013-03-21 17:47:00,32.4,14.4,30.07,NNW,331,5.0,11.0,47,0.00,,---,0.00,VWS V14.01,2013-03-21 21:47:00,
2013-03-21 17:52:00,32.6,14.6,30.07,WNW,283,4.0,11.0,47,0.00,,---,0.00,VWS V14.01,2013-03-21 21:52:00,
2013-03-21 17:57:00,32.8,14.3,30.07,NW,311,5.0,11.0,46,0.00,,---,0.00,VWS V14.01,2013-03-21 21:57:00,
2013-03-21 18:00:00,32.7,14.2,30.07,NNW,344,3.0,11.0,46,0.00,,---,0.00,VWS V14.01,2013-03-21 22:00:00,
2013-03-21 18:02:00,32.8,14.8,30.07,NE,36,2.0,6.0,47,0.00,,---,0.00,VWS V14.01,2013-03-21 22:02:00,
2013-03-21 18:07:00,32.6,14.1,30.07,NNW,341,1.0,6.0,46,0.00,,---,0.00,VWS V14.01,2013-03-21 22:07:00,
2013-03-21 18:12:00,32.7,14.2,30.07,NW,314,6.0,9.0,46,0.00,,---,0.00,VWS V14.01,2013-03-21 22:12:00,
2013-03-21 18:17:00,32.5,13.5,30.07,NW,311,4.0,10.0,45,0.00,,---,0.00,VWS V14.01,2013-03-21 22:17:00,
2013-03-21 18:22:00,32.3,13.4,30.07,NNW,333,7.0,10.0,45,0.00,,---,0.00,VWS V14.01,2013-03-21 22:22:00,
2013-03-21 18:27:00,31.6,13.7,30.07,NNW,344,3.0,10.0,47,0.00,,---,0.00,VWS V14.01,2013-03-21 22:27:00,
2013-03-21 18:32:00,31.6,13.2,30.07,NNW,335,2.0,10.0,46,0.00,,---,0.00,VWS V14.01,2013-03-21 22:32:00,
2013-03-21 18:37:00,32.1,14.2,30.07,NNW,330,2.0,10.0,47,0.00,,---,0.00,VWS V14.01,2013-03-21 22:37:00,
2013-03-21 18:42:00,32.3,13.9,30.07,NNW,337,3.0,10.0,46,0.00,,---,0.00,VWS V14.01,2013-03-21 22:42:00,
2013-03-21 18:47:00,32.4,13.9,30.07,WNW,287,7.0,10.0,46,0.00,,---,0.00,VWS V14.01,2013-03-21 22:47:00,
2013-03-21 18:52:00,32.4,13.9,30.07,NW,304,4.0,10.0,46,0.00,,---,0.00,VWS V14.01,2013-03-21 22:52:00,
2013-03-21 18:57:00,32.2,13.3,30.07,NW,320,5.0,10.0,45,0.00,,---,0.00,VWS V14.01,2013-03-21 22:57:00,
2013-03-21 19:00:00,32.2,13.8,30.07,NW,314,2.0,10.0,46,0.00,,---,0.00,VWS V14.01,2013-03-21 23:00:00,
2013-03-21 19:02:00,32.3,14.3,30.07,NW,315,4.0,4.0,47,0.00,,---,0.00,VWS V14.01,2013-03-21 23:02:00,
2013-03-21 19:07:00,32.4,13.9,30.07,NW,318,1.0,4.0,46,0.00,,---,0.00,VWS V14.01,2013-03-21 23:07:00,
2013-03-21 19:13:00,32.4,13.9,30.07,NNW,344,2.0,6.0,46,0.00,,---,0.00,VWS V14.01,2013-03-21 23:13:00,
2013-03-21 19:59:00,30.9,14.5,30.08,NNW,337,2.0,6.0,50,0.00,,---,0.00,VWS V14.01,2013-03-21 23:59:00,
2013-03-21 20:00:00,30.9,14.5,30.08,NNW,337,2.0,6.0,50,0.00,,---,0.00,VWS V14.01,2013-03-22 00:00:00,
2013-03-21 20:04:00,30.5,15.9,30.08,NNW,330,2.0,4.0,54,0.00,,---,0.00,VWS V14.01,2013-03-22 00:04:00,
2013-03-21 20:09:00,30.3,15.2,30.08,NW,326,2.0,4.0,53,0.00,,---,0.00,VWS V14.01,2013-03-22 00:09:00,
2013-03-21 20:14:00,30.0,17.0,30.08,NW,326,2.0,4.0,58,0.00,,---,0.00,VWS V14.01,2013-03-22 00:14:00,
2013-03-21 20:19:00,29.8,16.8,30.08,NW,326,1.0,4.0,58,0.00,,---,0.00,VWS V14.01,2013-03-22 00:19:00,
2013-03-21 20:24:00,29.7,15.5,30.08,NNW,328,0.0,4.0,55,0.00,,---,0.00,VWS V14.01,2013-03-22 00:24:00,
2013-03-21 20:29:00,29.4,15.2,30.08,NNW,328,0.0,4.0,55,0.00,,---,0.00,VWS V14.01,2013-03-22 00:29:00,
2013-03-21 20:34:00,29.1,15.4,30.08,NNW,327,0.0,4.0,56,0.00,,---,0.00,VWS V14.01,2013-03-22 00:34:00,
2013-03-21 20:39:00,29.0,16.1,30.09,NNW,328,0.0,4.0,58,0.00,,---,0.00,VWS V14.01,2013-03-22 00:39:00,
2013-03-21 20:44:00,28.9,16.8,30.08,NNW,327,0.0,4.0,60,0.00,,---,0.00,VWS V14.01,2013-03-22 00:44:00,
2013-03-21 20:49:00,28.8,16.7,30.09,NNW,327,0.0,4.0,60,0.00,,---,0.00,VWS V14.01,2013-03-22 00:49:00,
2013-03-21 20:54:00,28.8,16.3,30.09,NNW,328,0.0,4.0,59,0.00,,---,0.00,VWS V14.01,2013-03-22 00:54:00,
2013-03-21 20:59:00,28.9,16.4,30.09,NNW,328,0.0,0.0,59,0.00,,---,0.00,VWS V14.01,2013-03-22 00:59:00,
2013-03-21 21:00:00,28.9,16.4,30.09,NNW,328,0.0,4.0,59,0.00,,---,0.00,VWS V14.01,2013-03-22 01:00:00,
2013-03-21 21:04:00,28.9,15.6,30.09,NNW,328,0.0,0.0,57,0.00,,---,0.00,VWS V14.01,2013-03-22 01:04:00,
2013-03-21 21:09:00,29.0,16.1,30.09,NNW,330,2.0,2.0,58,0.00,,---,0.00,VWS V14.01,2013-03-22 01:09:00,
2013-03-21 21:14:00,28.9,15.6,30.09,NNW,340,1.0,2.0,57,0.00,,---,0.00,VWS V14.01,2013-03-22 01:14:00,
2013-03-21 21:19:00,28.8,16.3,30.09,NNW,338,1.0,2.0,59,0.00,,---,0.00,VWS V14.01,2013-03-22 01:19:00,
2013-03-21 21:24:00,28.7,16.6,30.09,NNW,337,0.0,2.0,60,0.00,,---,0.00,VWS V14.01,2013-03-22 01:24:00,
2013-03-21 21:29:00,28.5,16.0,30.10,NNW,338,1.0,2.0,59,0.00,,---,0.00,VWS V14.01,2013-03-22 01:29:00,
2013-03-21 21:34:00,28.5,16.0,30.10,NNW,337,1.0,2.0,59,0.00,,---,0.00,VWS V14.01,2013-03-22 01:34:00,
2013-03-21 21:39:00,28.6,16.1,30.10,NNW,337,1.0,2.0,59,0.00,,---,0.00,VWS V14.01,2013-03-22 01:39:00,
2013-03-21 21:44:00,28.6,16.9,30.10,NNW,337,1.0,2.0,61,0.00,,---,0.00,VWS V14.01,2013-03-22 01:44:00,
2013-03-21 21:49:00,28.5,16.8,30.10,NNW,337,0.0,2.0,61,0.00,,---,0.00,VWS V14.01,2013-03-22 01:49:00,
2013-03-21 21:54:00,28.5,16.4,30.10,NNW,337,0.0,2.0,60,0.00,,---,0.00,VWS V14.01,2013-03-22 01:54:00,
2013-03-21 21:59:00,28.1,16.0,30.10,NNW,337,0.0,0.0,60,0.00,,---,0.00,VWS V14.01,2013-03-22 01:59:00,
2013-03-21 22:00:00,28.1,16.0,30.10,NNW,338,0.0,2.0,60,0.00,,---,0.00,VWS V14.01,2013-03-22 02:00:00,
2013-03-21 22:04:00,27.7,15.6,30.09,NNW,338,0.0,0.0,60,0.00,,---,0.00,VWS V14.01,2013-03-22 02:04:00,
2013-03-21 22:09:00,27.2,15.2,30.09,NNW,337,0.0,0.0,60,0.00,,---,0.00,VWS V14.01,2013-03-22 02:09:00,
2013-03-21 22:14:00,26.9,15.6,30.09,NNW,338,0.0,0.0,62,0.00,,---,0.00,VWS V14.01,2013-03-22 02:14:00,
2013-03-21 22:19:00,26.6,15.7,30.10,NNW,338,0.0,0.0,63,0.00,,---,0.00,VWS V14.01,2013-03-22 02:19:00,
2013-03-21 22:24:00,26.6,15.7,30.10,NNW,337,0.0,0.0,63,0.00,,---,0.00,VWS V14.01,2013-03-22 02:24:00,
2013-03-21 22:29:00,26.9,16.4,30.10,NNW,337,1.0,1.0,64,0.00,,---,0.00,VWS V14.01,2013-03-22 02:29:00,
2013-03-21 22:34:00,27.1,15.8,30.10,SW,236,1.0,1.0,62,0.00,,---,0.00,VWS V14.01,2013-03-22 02:34:00,
2013-03-21 22:39:00,27.4,15.4,30.10,SW,236,0.0,1.0,60,0.00,,---,0.00,VWS V14.01,2013-03-22 02:39:00,
2013-03-21 22:44:00,27.5,15.4,30.10,SW,236,0.0,1.0,60,0.00,,---,0.00,VWS V14.01,2013-03-22 02:44:00,
2013-03-21 22:49:00,27.5,15.8,30.10,SW,236,1.0,1.0,61,0.00,,---,0.00,VWS V14.01,2013-03-22 02:49:00,
2013-03-21 22:54:00,27.5,15.8,30.09,SW,236,0.0,1.0,61,0.00,,---,0.00,VWS V14.01,2013-03-22 02:54:00,
2013-03-21 22:59:00,27.6,15.2,30.10,SW,236,0.0,0.0,59,0.00,,---,0.00,VWS V14.01,2013-03-22 02:59:00,
2013-03-21 23:00:00,27.6,15.2,30.10,SW,236,0.0,1.0,59,0.00,,---,0.00,VWS V14.01,2013-03-22 03:00:00,
2013-03-21 23:04:00,27.7,15.3,30.10,SW,236,0.0,1.0,59,0.00,,---,0.00,VWS V14.01,2013-03-22 03:04:00,
2013-03-21 23:09:00,27.6,16.3,30.10,SW,236,0.0,1.0,62,0.00,,---,0.00,VWS V14.01,2013-03-22 03:09:00,
2013-03-21 23:14:00,27.0,17.2,30.10,SW,236,0.0,1.0,66,0.00,,---,0.00,VWS V14.01,2013-03-22 03:14:00,
2013-03-21 23:19:00,26.4,18.3,30.10,SW,236,0.0,1.0,71,0.00,,---,0.00,VWS V14.01,2013-03-22 03:19:00,
2013-03-21 23:24:00,25.7,19.2,30.11,SW,236,0.0,1.0,76,0.00,,---,0.00,VWS V14.01,2013-03-22 03:24:00,
2013-03-21 23:29:00,25.9,20.3,30.11,SW,236,0.0,1.0,79,0.00,,---,0.00,VWS V14.01,2013-03-22 03:29:00,
2013-03-21 23:34:00,25.9,20.9,30.11,SW,236,0.0,1.0,81,0.00,,---,0.00,VWS V14.01,2013-03-22 03:34:00,
2013-03-21 23:39:00,25.9,20.6,30.11,SW,236,0.0,1.0,80,0.00,,---,0.00,VWS V14.01,2013-03-22 03:39:00,
2013-03-21 23:44:00,25.9,19.4,30.11,SW,236,0.0,1.0,76,0.00,,---,0.00,VWS V14.01,2013-03-22 03:44:00,
2013-03-21 23:49:00,25.9,16.8,30.11,SW,236,0.0,1.0,68,0.00,,---,0.00,VWS V14.01,2013-03-22 03:49:00,
2013-03-21 23:54:00,25.9,16.8,30.10,WSW,239,3.0,3.0,68,0.00,,---,0.00,VWS V14.01,2013-03-22 03:54:00,
2013-03-21 23:59:00,25.8,17.4,30.11,WSW,240,2.0,2.0,70,0.00,,---,0.00,VWS V14.01,2013-03-22 03:59:00,